This demonstration page uses our WeatherBlox Daily Observations layout. Learn more.

38.88101, -77.10428

Hourly Observations for September 19, 2020

Temp ( °F °C ) Dew Point ( °F °C ) Humidity (%) Winds ( mph kmh ) Pressure ( in mb ) Visibility ( mi km ) Precip ( " mm )
12:52 am 00:52 Clear 59 15 38 3.3 46 46 NNE 15 24 30.2 1023 10 16.0934 0 0
1:52 am 01:52 Clear 57 13.9 36 2.2 45 45 N 20 31 30.23 1024 10 16.0934 0 0
2:52 am 02:52 Clear 55 12.8 36 2.2 49 49 N 18 30 30.25 1024 10 16.0934 0 0
3:52 am 03:52 Clear 53 11.7 36 2.2 52 52 N 13 20 30.25 1024 10 16.0934 0 0
4:52 am 04:52 Clear 52 11.1 35 1.7 53 53 N 13 20 30.27 1025 10 16.0934 0 0
5:52 am 05:52 Partly Cloudy 51 10.6 35 1.7 54 54 N 15 24 30.29 1026 10 16.0934 0 0
6:52 am 06:52 Partly Cloudy 50 10 36 2.2 59 59 N 14 22 30.3 1026 10 16.0934 0 0
7:52 am 07:52 Partly Cloudy 51 10.6 36 2.2 56 56 NNE 13 20 30.32 1027 10 16.0934 0 0
8:52 am 08:52 Mostly Cloudy 54 12.2 34 1.1 47 47 NNE 16 26 30.34 1027 10 16.0934 0 0
9:52 am 09:52 Partly Cloudy 57 13.9 35 1.7 44 44 NE 15 24 30.35 1028 10 16.0934 0 0
10:52 am 10:52 Partly Cloudy 59 15 35 1.7 41 41 N 15 24 30.37 1029 10 16.0934 0 0
11:52 am 11:52 Partly Cloudy 61 16.1 35 1.7 38 38 NE 12 19 30.37 1029 10 16.0934 0 0
12:52 pm 12:52 Partly Cloudy 62 16.7 34 1.1 35 35 N 9 15 30.36 1028 10 16.0934 0 0
1:52 pm 13:52 Partly Cloudy 64 17.8 35 1.7 34 34 N 9 15 30.35 1028 10 16.0934 0 0
2:52 pm 14:52 Partly Cloudy 66 18.9 36 2.2 33 33 NNE 10 17 30.33 1027 10 16.0934 0 0
3:52 pm 15:52 Partly Cloudy 66 18.9 35 1.7 32 32 N 10 17 30.32 1027 10 16.0934 0 0
4:52 pm 16:52 Partly Cloudy 66 18.9 34 1.1 30 30 N 6 9 30.31 1027 10 16.0934 0 0
5:52 pm 17:52 Partly Cloudy 65 18.3 36 2.2 34 34 ENE 6 9 30.32 1027 10 16.0934 0 0
6:52 pm 18:52 Partly Cloudy 62 16.7 36 2.2 38 38 NE 9 15 30.32 1027 10 16.0934 0 0
7:52 pm 19:52 Partly Cloudy 61 16.1 39 3.9 44 44 ESE 8 13 30.33 1027 10 16.0934 0 0
8:52 pm 20:52 Partly Cloudy 59 15 41 5 51 51 ENE 5 7 30.35 1028 10 16.0934 0 0
9:52 pm 21:52 Mostly Clear 58 14.4 46 7.8 65 65 NE 5 7 30.37 1028 10 16.0934 0 0
10:52 pm 22:52 Partly Cloudy 56 13.3 44 6.7 65 65 N 3 6 30.37 1028 10 16.0934 0 0
11:52 pm 23:52 Mostly Clear 55 12.8 43 6.1 64 64 N 3 6 30.38 1029 10 16.0934 0 0

Powered by AerisWeather